Weather History for Kahului, HI

Change the Weather History Date:

Thursday, February 2, 2012

  Actual Average Record
Temperature  
Mean Temperature 76 °F 72 °F  
Max Temperature 85 °F 81 °F 86 °F (1956)
Min Temperature 66 °F 63 °F 50 °F (1987)
Degree Days  
Heating Degree Days 0 0  
Month to date heating degree days 0 0  
Since 1 July heating degree days 0 0  
Cooling Degree Days 11 7  
Month to date cooling degree days 16 14  
Year to date cooling degree days 267 231  
Growing Degree Days 22 (Base 50)    
Moisture  
Dew Point 57 °F    
Average Humidity 54    
Maximum Humidity 73    
Minimum Humidity 34    
Precipitation  
Precipitation 0.00 in 0.08 in 1.54 in (1969)
Month to date precipitation 0.00 0.16  
Year to date precipitation 0.00 3.03  
Snow  
Snow 0.00 in - - ()
Month to date snowfall 0.0  
Since 1 July snowfall 0.0  
Snow Depth 0.00 in    
Sea Level Pressure  
Sea Level Pressure 30.05 in    
Wind  
Wind Speed 10 mph (NE)    
Max Wind Speed 23 mph    
Max Gust Speed 28 mph    
Visibility 10 miles    
Events      
T = Trace of Precipitation, MM = Missing Value Source: NWS Daily Summary

Daily Weather History Graph

Daily Weather History Graph

Search for Another Location

Airport:

Trip Planner

Search our weather history database for the weather conditions in past years. The results will help you decide how hot, cold, wet, or windy it might be!

Date:

Astronomy

Feb. 02, 2012 Rise Set
Actual Time 7:02 AM HST 6:16 PM HST
Civil Twilight 6:39 AM HST 6:39 PM HST
Nautical Twilight 6:12 AM HST 7:06 PM HST
Astronomical Twilight 5:46 AM HST 7:32 PM HST
Moon 1:52 PM HST (2/2) 2:40 AM HST (2/2)
Length of Visible Light 12h 00m
Length of Day
11h 14m
Waxing Gibbous, 75% of the Moon is Illuminated
Feb 2
Waxing Gibbous
Feb 7
Full
Feb 14
Last Quarter
Feb 21
New
Feb 29
First Quarter

Hourly Weather History & Observations

Time (HST) Temp. Heat Index Dew Point Humidity Pressure Visibility Wind Dir Wind Speed Gust Speed Precip Events Conditions
12:54 AM 66.0 °F - 57.0 °F 73% 30.09 in 10.0 mi NE 4.6 mph - N/A   Partly Cloudy
1:54 AM 66.9 °F - 55.9 °F 68% 30.07 in 10.0 mi North 4.6 mph - N/A   Clear
2:54 AM 68.0 °F - 55.9 °F 65% 30.05 in 10.0 mi NNE 4.6 mph - N/A   Clear
3:54 AM 68.0 °F - 55.9 °F 65% 30.05 in 10.0 mi NE 5.8 mph - N/A   Clear
4:54 AM 68.0 °F - 55.0 °F 63% 30.04 in 10.0 mi NNE 5.8 mph - N/A   Scattered Clouds
5:54 AM 70.0 °F - 55.9 °F 61% 30.03 in 10.0 mi NE 15.0 mph - N/A   Clear
6:54 AM 69.1 °F - 55.0 °F 61% 30.06 in 10.0 mi NE 9.2 mph - N/A   Clear
7:54 AM 71.1 °F - 54.0 °F 55% 30.07 in 10.0 mi NE 8.1 mph - N/A   Partly Cloudy
8:54 AM 75.0 °F - 53.1 °F 46% 30.06 in 10.0 mi NE 10.4 mph - N/A   Clear
9:54 AM 77.0 °F - 52.0 °F 42% 30.06 in 10.0 mi SE 11.5 mph - N/A   Partly Cloudy
10:54 AM 80.1 °F 79.9 °F 53.1 °F 39% 30.05 in 10.0 mi ENE 10.4 mph 17.3 mph N/A   Partly Cloudy
11:54 AM 82.0 °F - 52.0 °F 35% 30.01 in 10.0 mi ENE 13.8 mph 20.7 mph N/A   Clear
12:54 PM 82.9 °F 82.1 °F 55.9 °F 39% 30.00 in 10.0 mi NE 10.4 mph 17.3 mph N/A   Partly Cloudy
1:54 PM 80.1 °F 80.6 °F 57.9 °F 47% 30.00 in 10.0 mi NNE 19.6 mph 26.5 mph N/A   Scattered Clouds
2:54 PM 81.0 °F 81.3 °F 59.0 °F 47% 30.00 in 10.0 mi NE 20.7 mph 26.5 mph N/A   Scattered Clouds
3:54 PM 78.1 °F - 59.0 °F 52% 30.01 in 10.0 mi NE 15.0 mph 20.7 mph N/A   Scattered Clouds
4:54 PM 77.0 °F - 59.0 °F 54% 30.01 in 10.0 mi ENE 11.5 mph - N/A   Scattered Clouds
5:25 PM 77.0 °F - 59.0 °F 54% 30.01 in 10.0 mi ENE 11.5 mph - N/A   Scattered Clouds
5:54 PM 73.9 °F - 60.1 °F 62% 30.04 in 10.0 mi ENE 8.1 mph - N/A   Scattered Clouds
6:54 PM 71.1 °F - 60.1 °F 68% 30.05 in 10.0 mi ENE 8.1 mph - N/A   Partly Cloudy
7:54 PM 71.1 °F - 60.1 °F 68% 30.07 in 10.0 mi ENE 5.8 mph - N/A   Overcast
8:54 PM 69.1 °F - 59.0 °F 70% 30.08 in 10.0 mi Calm Calm - N/A   Clear
9:54 PM 68.0 °F - 59.0 °F 73% 30.08 in 10.0 mi Calm Calm - N/A   Clear
10:54 PM 63.0 °F - 55.9 °F 78% 30.08 in 10.0 mi SE 5.8 mph - N/A   Clear
11:54 PM 61.0 °F - 55.0 °F 81% 30.06 in 10.0 mi Calm Calm - N/A   Clear